Simultaneous Nadir Overpasses (SNOs) Predictions

Prediction of SNOs between AURA and NPP Satellite Orbit:

Table of predicted SNOs for the next 14.0 days since TLE Epoch: 4/25/2015
Index Date (AURA) Time (AURA) Lat,Lon (AURA) SZA (AURA ) Date (NPP) Time (NPP) Lat,Lon (NPP) SZA (NPP ) Distance(km) Time Diff (sec)
1 04/28/2015 08:58:16 -78.32, 115.54 99.98 04/28/2015 08:57:46 -78.31, 115.44 99.93 2.30 30
2 04/28/2015 09:47:29 78.85, -73.97 79.31 04/28/2015 09:48:16 78.86, -73.94 79.26 0.70 47
3 05/01/2015 01:14:47 -78.43,-128.06 100.95 05/01/2015 01:14:33 -78.42,-128.16 100.92 2.48 14
4 05/01/2015 02:04:00 78.96, 42.48 78.34 05/01/2015 02:05:03 78.96, 42.51 78.28 0.71 63
5 05/03/2015 16:43:33 73.62, 164.53 83.81 05/03/2015 16:42:20 73.76, 163.45 84.03 37.45 73
6 05/03/2015 17:31:17 -78.60, -11.32 101.97 05/03/2015 17:31:18 -78.59, -11.34 101.97 0.49 1
7 05/06/2015 08:58:33 78.17, -65.26 77.84 05/06/2015 08:57:32 78.16, -65.33 77.90 1.51 61
8 05/06/2015 09:47:50 -78.62, 104.65 102.77 05/06/2015 09:48:06 -78.61, 104.54 102.76 2.54 16
9 05/09/2015 01:15:05 78.29, 51.21 76.94 05/09/2015 01:14:18 78.29, 51.15 76.99 1.35 47




NCC Satellite Simultaneous Nadir Overpasses (SNOs) Prediction Service
